Location: Milton Keynes
(52.0316°N, 0.7531°W)
Time: 23:12:09
(UTC+01:00)

N. Korean satellite - Pass Details

Date: 25 January 2019
Orbit: 457 x 508 km, 97.2° (Epoch: 18 April)

Event Time Altitude Azimuth Distance (km) Brightness Sun altitude
Rises 18:10:11 0° 197° (SSW) 2,590 10.7 -14.0°
Reaches altitude 10° 18:12:33 10° 211° (SSW) 1,717 10.0 -14.4°
Maximum altitude 18:15:36 24° 267° (W) 1,091 9.3 -14.8°
Drops below altitude 10° 18:18:42 10° 322° (NW) 1,741 9.7 -15.3°
Sets 18:21:07 0° 337° (NNW) 2,634 10.5 -15.7°
